Tracking 25193 objects as of 18-Jan-2022
HD Live streaming from Space Station
objects crossing your sky now

ANIK A2 (TELESAT 2)

Track ANIK A2 (TELESAT 2) now!
ANIK A2 (TELESAT 2) is classified as:


NORAD ID: 6437
Int'l Code: 1973-023A
Perigee: 35,878.4 km
Apogee: 35,979.3 km
Inclination: 10.6 °
Period: 1,443.0 minutes
Semi major axis: 42299 km
RCS: 3.1458 m2 (large)
Launch date: April 20, 1973
Source: Canada (CA)
Launch site: AIR FORCE EASTERN TEST RANGE (AFETR)
aabbcc
Your satellite tracking list
Your tracking list is empty




NASA's NSSDC Master Catalog

Two Line Element Set (TLE):
1  6437U 73023A   22017.50395885  .00000063  00000-0  00000+0 0  9998
2  6437  10.6045 311.1252 0011920  36.9961 193.5052  0.99791699104234
Source of the keplerian elements: AFSPC